Location: Skalnate Pleso
(49.1889°N, 20.2450°E)
Time: 11:54:27
(UTC+01:00)

Cosmos 2233 Rocket - Pass Details

Date: 19 November 2019
Orbit: 953 x 990 km, 82.9° (Epoch: 11 December)

Event Time Altitude Azimuth Distance (km) Brightness Sun altitude
Rises 05:32:10 0° 187° (S) 3,670 7.1 -13.3°
Reaches altitude 10° 05:34:39 10° 188° (S) 2,731 6.4 -12.9°
Maximum altitude 05:40:57 88° 279° (W) 996 4.0 -11.9°
Drops below altitude 10° 05:47:19 10° 9° (N) 2,764 6.3 -10.9°
Sets 05:49:52 0° 10° (N) 3,717 7.0 -10.5°
